(102) Miriam
ephemeris date magn radius delta ra dec elong phase
Today3 Jul 202514.42.280 AU3.166 AU05h02m+20°37'24.5°10.6°
Opposition13 Jan 202613.32.796 AU1.818 AU07h37m+13°33'172.1°2.8°
(102) Miriam - 2025-07-03
astro.vanbuitenen.nl


 
-1 year
-1 month
-1 day
Now
+1 day
+1 month
+1 year

The interactive orbit chart above shows the body's path through the solar system and its position at the given date. Green and blue lines are shown perpendicular to the ecliptic plane: Green if the path is above the ecliptic plane, blue if it is below. (Left-click and drag to rotate the view; Right-click and drag to move the view; Use scroll wheel to zoom in our out.)

The orbital elements of Miriam are:

            e (Eccentricity)                : 0.2508431
            a (Semimajor axis)              : 2.6623950
            i (Inclination)                 : 5.17409
            Ω (Longitude of ascending node) : 210.76235
            ω (Argument of perihelion)      : 147.35373
            M (Mean anomaly)                : 29.93001
            Epoch                           : 2025 May 05

            L (Longitude of perihelion)     : 178.22225
            B (Latitude of perihelion)      : 2.78848
            P (Orbital period in years)     : 4.34            
        

The light curve chart below shows the estimated development of the minor planet's magnitude.


The all-sky chart below shows the path of the minor planet over the same period as the light curve. The current position is marked yellow.





The following chart shows the path of the minor planet in the next few days. The field of view is optimized for (~10x50) binoculars and finderscopes. A more printer-friendly version of the same chart can be found below.




Ephemerides:
Date       Time       RA (2000)    DEC (2000)    delta   radius  elong  phase   PA    magn
2025-07-03 00:00 UT   05 02 40.9   +20 37 19     3.166    2.280   24.5   10.6   260   14.4 
2025-07-03 06:35 UT   05 03 14.8   +20 37 47     3.166    2.281   24.6   10.7   260   14.4 
2025-07-04 00:00 UT   05 04 44.2   +20 38 56     3.164    2.283   25.0   10.8   260   14.4 
2025-07-05 00:00 UT   05 06 47.3   +20 40 26     3.161    2.285   25.4   11.0   260   14.5 
2025-07-06 00:00 UT   05 08 50.1   +20 41 49     3.159    2.288   25.9   11.2   260   14.5 
2025-07-07 00:00 UT   05 10 52.6   +20 43 06     3.156    2.291   26.4   11.4   261   14.5 
2025-07-08 00:00 UT   05 12 54.7   +20 44 17     3.154    2.293   26.9   11.6   261   14.5 
2025-07-09 00:00 UT   05 14 56.6   +20 45 20     3.151    2.296   27.3   11.7   261   14.5 
2025-07-10 00:00 UT   05 16 58.2   +20 46 18     3.148    2.298   27.8   11.9   261   14.5 
2025-07-11 00:00 UT   05 18 59.5   +20 47 09     3.145    2.301   28.3   12.1   262   14.5 
2025-07-12 00:00 UT   05 21 00.5   +20 47 53     3.142    2.303   28.8   12.3   262   14.5 
2025-07-13 00:00 UT   05 23 01.1   +20 48 32     3.139    2.306   29.3   12.4   262   14.5 
2025-07-14 00:00 UT   05 25 01.4   +20 49 04     3.135    2.308   29.7   12.6   262   14.5 
2025-07-15 00:00 UT   05 27 01.4   +20 49 29     3.132    2.311   30.2   12.8   263   14.5 
2025-07-16 00:00 UT   05 29 01.1   +20 49 49     3.128    2.314   30.7   13.0   263   14.5 
2025-07-17 00:00 UT   05 31 00.4   +20 50 02     3.125    2.316   31.2   13.1   263   14.5 
2025-07-18 00:00 UT   05 32 59.3   +20 50 09     3.121    2.319   31.7   13.3   263   14.5 
2025-07-19 00:00 UT   05 34 57.9   +20 50 10     3.118    2.321   32.2   13.5   264   14.5 
2025-07-20 00:00 UT   05 36 56.2   +20 50 04     3.114    2.324   32.7   13.7   264   14.6 
2025-07-21 00:00 UT   05 38 54.1   +20 49 53     3.110    2.327   33.2   13.8   264   14.6 


    Terminology:
            
    delta:  distance between minor planet and earth in AU
    radius: distance between minor planet and sun in AU
    magn:   magnitude (brightness) estimate    
    ra:     right ascension in hours (24h = 360deg)
    dec:    declination in degrees
    elong:  elongation in degrees (angle sun-earth-minor planet)    
    phase:  phase angle in degrees (angle sun-minor planet-earth)        
    AU:     Astronomical Unit (mean distance between earth and sun: 149597870.7 km
    

Orbital elements provided by the MPC (Minor Planet Center).
Calculations by a modified version of AAPlus, a C# implementation of the AA+ project by PJ Naughter from the algorithms presented in the book "Astronomical Algorithms" by Jean Meeus.
NGC2000 dso catalog and star labels from VizieR as provided by the Strasbourg astronomical Data Center.
Tycho2 catalog from the ESO archive.